Weather in Celaya

Mexico     20°31′09″N   100°48′50″W
temp.,
°C
wind,
m/s
gust,
m/s
humid.,
%
clouds,
%
prec.,
mm/h
press.,
hPa
HPBL,
m
9 may, sun
sun901:00+19w236685 0.7 1015368
04:00+19ssw2267100 0.0 1013249
07:00+18ssw227398 0.0 101492
10:00+21wsw2255100 0.0 1014785
13:00+26wsw1237100 0.0 10121884
16:00+29se132499 0.0 10072560
19:00+23n5843100 0.3 1008432
22:00+18sw3475100 2.4 1015487
10 may, mon
mon1001:00+17wsw3480100 2.7 1016620
04:00+17wnw2381100 0.1 1015508
07:00+16wsw238284 0.1 1015296
10:00+19wsw2265100 0.0 1016680
13:00+25w114284 0.0 10131732
16:00+26w3234100 0.1 10092275
19:00+24wsw6545100 0.1 1009962
22:00+19nw236691 1.3 1013234
11 may, tue
tue1101:00+20e016596 1.9 1014275
04:00+18nne2372100 0.8 1012219
07:00+17ese117777 2.9 101437
10:00+22wsw125570 1.6 1013814
13:00+26w333885 1.8 10112365
16:00+26w3334100 0.0 10081833
19:00+25wsw663898 0.1 10081288
22:00+19wsw356982 0.5 1014350
12 may, wed
wed1201:00+19s126992 0.6 1015269
04:00+19sw126991 0.3 1014184
07:00+18w227294 0.3 1015103
10:00+21wsw235662 0.0 1015690
13:00+26wsw333973 0.0 10132083
16:00+25wnw024092 0.6 10111288
19:00+22nnw1155100 1.1 1011168
22:00+21se3460100 0.3 1014237
13 may, thu
thu1301:00+19sse126892 1.2 101589
04:00+17ene22758 1.2 101535
07:00+16ne357711 1.2 1017114
10:00+21ene455340 0.1 10171111
13:00+26ene443983 0.1 10142318
16:00+23ne674785 0.1 10131660
19:00+22e884868 0.1 10131465
22:00+18ene586798 0.0 1018710